�������l�o���
Date,Time,MP-1(��Sv/h),MP-2(��Sv/h),MP-3(��Sv/h),MP-4(��Sv/h),MP-5(��Sv/h),MP-6(��Sv/h),MP-7(��Sv/h),MP-8(��Sv/h),����,����(m/s),���J
2022/07/18,00:00,0.586,0.832,0.532,0.993,0.704,0.341,0.584,0.555,�k,1.2,��
2022/07/18,00:10,0.589,0.830,0.532,0.994,0.704,0.342,0.585,0.556,-,CALM,��
2022/07/18,00:20,0.587,0.830,0.534,0.994,0.702,0.342,0.585,0.553,�k,0.6,��
2022/07/18,00:30,0.587,0.830,0.532,0.994,0.703,0.340,0.585,0.556,�k,0.8,��
2022/07/18,00:40,0.587,0.831,0.531,0.994,0.704,0.341,0.585,0.554,�k�k��,1.2,��
2022/07/18,00:50,0.588,0.830,0.532,0.992,0.704,0.341,0.587,0.555,�k�k��,0.9,��
2022/07/18,01:00,0.588,0.830,0.533,0.995,0.704,0.341,0.585,0.555,�k��,1.2,��
2022/07/18,01:10,0.587,0.830,0.531,0.992,0.703,0.341,0.586,0.554,-,CALM,��
2022/07/18,01:20,0.589,0.830,0.533,0.993,0.704,0.341,0.587,0.554,-,CALM,��
2022/07/18,01:30,0.587,0.831,0.533,0.994,0.703,0.342,0.586,0.556,��,0.9,��
2022/07/18,01:40,0.588,0.832,0.533,0.994,0.703,0.342,0.586,0.556,�쐼,0.9,��
2022/07/18,01:50,0.587,0.830,0.533,0.994,0.703,0.340,0.587,0.554,�쐼,0.9,��
2022/07/18,02:00,0.585,0.829,0.533,0.994,0.702,0.341,0.586,0.555,��,0.9,��
2022/07/18,02:10,0.587,0.830,0.533,0.992,0.703,0.340,0.585,0.554,��,1.2,��
2022/07/18,02:20,0.586,0.831,0.530,0.992,0.703,0.342,0.586,0.555,��쐼,1.2,��
2022/07/18,02:30,0.585,0.833,0.531,0.993,0.702,0.341,0.587,0.554,�쐼,0.8,��
2022/07/18,02:40,0.587,0.832,0.532,0.994,0.705,0.341,0.586,0.555,-,CALM,��
2022/07/18,02:50,0.586,0.831,0.533,0.993,0.702,0.341,0.587,0.554,��,1.2,��
2022/07/18,03:00,0.586,0.830,0.533,0.991,0.703,0.341,0.587,0.556,��,1.9,��
2022/07/18,03:10,0.587,0.830,0.533,0.994,0.704,0.341,0.586,0.555,���쐼,0.6,��
2022/07/18,03:20,0.587,0.833,0.533,0.996,0.705,0.342,0.588,0.554,���k��,0.6,��
2022/07/18,03:30,0.587,0.830,0.532,0.995,0.704,0.341,0.587,0.555,���쐼,0.6,��
2022/07/18,03:40,0.588,0.830,0.533,0.995,0.705,0.342,0.586,0.555,-,CALM,��
2022/07/18,03:50,0.586,0.832,0.533,0.994,0.705,0.342,0.586,0.554,-,CALM,��
2022/07/18,04:00,0.586,0.830,0.533,0.992,0.704,0.341,0.588,0.553,-,CALM,��
2022/07/18,04:10,0.587,0.831,0.532,0.995,0.705,0.341,0.587,0.555,���k��,1.1,��
2022/07/18,04:20,0.587,0.833,0.534,0.991,0.702,0.342,0.586,0.554,���k��,1.9,��
2022/07/18,04:30,0.589,0.830,0.534,0.995,0.703,0.341,0.587,0.554,���k��,3.1,��
2022/07/18,04:40,0.587,0.830,0.533,0.995,0.704,0.343,0.586,0.556,���k��,2.6,��
2022/07/18,04:50,0.586,0.831,0.533,0.993,0.704,0.341,0.588,0.554,�k��,2.6,��
2022/07/18,05:00,0.587,0.832,0.533,0.992,0.701,0.342,0.588,0.555,�k��,3.2,��
2022/07/18,05:10,0.588,0.832,0.533,0.994,0.704,0.341,0.589,0.555,�k��,3.1,��
2022/07/18,05:20,0.587,0.831,0.536,0.994,0.705,0.341,0.588,0.554,�k��,2.8,��
2022/07/18,05:30,0.588,0.830,0.534,0.993,0.702,0.343,0.587,0.553,���k��,3.1,��
2022/07/18,05:40,0.588,0.829,0.532,0.994,0.702,0.341,0.588,0.555,�k��,4.0,��
2022/07/18,05:50,0.588,0.830,0.533,0.994,0.702,0.343,0.588,0.555,���k��,5.3,��
2022/07/18,06:00,0.586,0.831,0.532,0.994,0.702,0.341,0.588,0.555,���k��,5.4,��
2022/07/18,06:10,0.589,0.830,0.534,0.993,0.702,0.340,0.588,0.557,���k��,5.4,��
2022/07/18,06:20,0.587,0.831,0.531,0.994,0.702,0.340,0.587,0.555,���k��,4.5,��
2022/07/18,06:30,0.587,0.832,0.534,0.994,0.703,0.344,0.587,0.557,�k��,1.9,��
2022/07/18,06:40,0.587,0.832,0.533,0.995,0.704,0.343,0.589,0.553,�k,1.4,��
2022/07/18,06:50,0.585,0.832,0.533,0.993,0.702,0.342,0.588,0.554,�k�k��,1.2,��
2022/07/18,07:00,0.585,0.831,0.532,0.992,0.704,0.342,0.588,0.555,�k�k��,0.9,��
2022/07/18,07:10,0.588,0.833,0.531,0.994,0.705,0.343,0.588,0.555,-,CALM,��
2022/07/18,07:20,0.587,0.830,0.534,0.992,0.703,0.342,0.588,0.557,���k��,1.1,��
2022/07/18,07:30,0.589,0.832,0.532,0.993,0.703,0.342,0.588,0.555,���k��,0.9,��
2022/07/18,07:40,0.588,0.828,0.533,0.994,0.702,0.343,0.588,0.553,�k�k��,0.9,��
2022/07/18,07:50,0.587,0.832,0.534,0.994,0.705,0.342,0.588,0.554,-,CALM,��
2022/07/18,08:00,0.586,0.831,0.532,0.993,0.705,0.343,0.588,0.553,��쓌,3.0,��
2022/07/18,08:10,0.588,0.828,0.533,0.994,0.704,0.341,0.588,0.552,��쓌,2.6,��
2022/07/18,08:20,0.587,0.829,0.532,0.995,0.704,0.342,0.587,0.552,��쓌,3.7,��
2022/07/18,08:30,0.588,0.831,0.532,0.993,0.703,0.340,0.587,0.551,��쓌,2.6,��
2022/07/18,08:40,0.588,0.829,0.532,0.995,0.704,0.341,0.588,0.552,��쓌,3.8,��
2022/07/18,08:50,0.588,0.828,0.532,0.996,0.705,0.341,0.588,0.551,��쓌,2.5,��
2022/07/18,09:00,0.590,0.828,0.532,0.996,0.703,0.342,0.590,0.554,��쓌,2.5,��
2022/07/18,09:10,0.590,0.831,0.533,0.993,0.702,0.343,0.588,0.553,��쓌,3.5,��
2022/07/18,09:20,0.590,0.830,0.534,0.996,0.705,0.343,0.588,0.553,��쓌,3.8,��
2022/07/18,09:30,0.590,0.830,0.533,0.994,0.704,0.342,0.591,0.553,��쓌,2.6,��
2022/07/18,09:40,0.592,0.830,0.532,0.995,0.705,0.342,0.589,0.553,�쓌,2.6,��
2022/07/18,09:50,0.590,0.829,0.533,0.995,0.707,0.342,0.588,0.553,��쓌,3.2,��
2022/07/18,10:00,0.591,0.831,0.534,0.996,0.705,0.342,0.589,0.554,��쓌,2.8,��
2022/07/18,10:10,0.591,0.831,0.533,0.996,0.706,0.343,0.589,0.554,��쓌,4.0,��
2022/07/18,10:20,0.591,0.829,0.533,0.998,0.707,0.341,0.587,0.553,��쓌,4.8,��
2022/07/18,10:30,0.591,0.833,0.534,0.996,0.707,0.342,0.588,0.554,��쓌,3.8,��
2022/07/18,10:40,0.593,0.832,0.534,0.996,0.706,0.342,0.590,0.554,�쓌,3.8,��
2022/07/18,10:50,0.591,0.831,0.533,0.996,0.707,0.343,0.590,0.554,��쓌,4.2,��
2022/07/18,11:00,0.592,0.833,0.535,0.998,0.706,0.342,0.589,0.554,��쓌,4.2,��
2022/07/18,11:10,0.590,0.834,0.534,0.996,0.708,0.342,0.588,0.554,��쓌,4.6,��
2022/07/18,11:20,0.589,0.831,0.534,0.995,0.707,0.343,0.588,0.555,��쓌,4.4,��
2022/07/18,11:30,0.592,0.832,0.535,0.995,0.710,0.343,0.588,0.554,��쓌,4.6,��
2022/07/18,11:40,0.590,0.833,0.534,0.996,0.708,0.343,0.589,0.553,��쓌,4.3,��
2022/07/18,11:50,0.591,0.832,0.533,0.997,0.710,0.343,0.590,0.554,��쓌,4.2,��
2022/07/18,12:00,0.592,0.835,0.535,0.996,0.707,0.343,0.588,0.554,�쓌,4.6,��
2022/07/18,12:10,0.591,0.839,0.535,0.995,0.709,0.343,0.589,0.555,�쓌,4.2,��
2022/07/18,12:20,0.593,0.838,0.535,0.997,0.710,0.343,0.589,0.555,��쓌,4.9,��
2022/07/18,12:30,0.593,0.838,0.534,0.997,0.709,0.343,0.588,0.554,�쓌,5.6,��
2022/07/18,12:40,0.594,0.836,0.534,0.996,0.709,0.343,0.588,0.554,��쓌,6.5,��
2022/07/18,12:50,0.591,0.838,0.535,0.996,0.710,0.342,0.589,0.554,��쓌,6.2,��
2022/07/18,13:00,0.593,0.838,0.536,0.995,0.709,0.343,0.588,0.555,��쓌,6.6,��
2022/07/18,13:10,0.590,0.837,0.536,0.997,0.710,0.342,0.589,0.555,��쓌,6.5,��
2022/07/18,13:20,0.592,0.838,0.533,0.996,0.709,0.340,0.590,0.554,��쓌,5.9,��
2022/07/18,13:30,0.591,0.836,0.535,0.994,0.709,0.341,0.587,0.554,��쓌,6.2,��
2022/07/18,13:40,0.590,0.835,0.533,0.997,0.712,0.342,0.588,0.554,��쓌,7.8,��
2022/07/18,13:50,0.591,0.837,0.534,0.998,0.708,0.342,0.589,0.555,��,6.9,��
2022/07/18,14:00,0.590,0.835,0.534,0.995,0.710,0.344,0.588,0.555,��,5.6,��
2022/07/18,14:10,0.591,0.836,0.535,0.997,0.711,0.343,0.589,0.555,��,7.5,��
2022/07/18,14:20,0.592,0.837,0.536,0.999,0.712,0.343,0.588,0.556,��,8.1,��
2022/07/18,14:30,0.590,0.838,0.534,0.997,0.711,0.343,0.589,0.555,��,7.3,��
2022/07/18,14:40,0.592,0.838,0.536,0.997,0.711,0.344,0.588,0.555,��,6.7,��
2022/07/18,14:50,0.592,0.838,0.536,1.000,0.708,0.343,0.590,0.555,��,6.4,��
2022/07/18,15:00,0.593,0.840,0.534,0.996,0.709,0.342,0.590,0.555,��,6.4,��
2022/07/18,15:10,0.592,0.836,0.535,0.998,0.710,0.342,0.589,0.555,��쐼,1.9,��
2022/07/18,15:20,0.592,0.836,0.535,0.997,0.711,0.344,0.589,0.555,-,CALM,��
2022/07/18,15:30,0.593,0.840,0.535,0.997,0.715,0.343,0.588,0.554,�k�k��,1.4,��
2022/07/18,15:40,0.593,0.839,0.536,1.000,0.714,0.342,0.589,0.555,�k�k��,1.2,��
2022/07/18,15:50,0.593,0.841,0.537,1.001,0.712,0.343,0.589,0.555,�k��,3.6,��
2022/07/18,16:00,0.594,0.840,0.536,1.001,0.712,0.343,0.589,0.554,�k�k��,2.3,��
2022/07/18,16:10,0.594,0.842,0.534,1.001,0.714,0.342,0.588,0.556,�k,2.2,��
2022/07/18,16:20,0.595,0.840,0.537,0.999,0.714,0.342,0.588,0.555,�k,2.2,��
2022/07/18,16:30,0.594,0.839,0.537,0.999,0.715,0.344,0.589,0.555,�k�k��,2.9,��
2022/07/18,16:40,0.594,0.841,0.536,1.001,0.712,0.342,0.589,0.553,�k�k��,3.1,��
2022/07/18,16:50,0.595,0.842,0.537,1.000,0.713,0.343,0.590,0.555,�k��,2.8,��
2022/07/18,17:00,0.594,0.840,0.536,1.001,0.714,0.343,0.591,0.555,�k,2.5,��
2022/07/18,17:10,0.595,0.842,0.537,1.001,0.712,0.342,0.589,0.556,�k,1.4,��
2022/07/18,17:20,0.596,0.842,0.537,1.004,0.711,0.343,0.590,0.556,�k��,0.9,��
2022/07/18,17:30,0.594,0.842,0.538,1.002,0.715,0.344,0.590,0.556,��,1.1,��
2022/07/18,17:40,0.593,0.844,0.536,1.001,0.712,0.343,0.589,0.555,-,CALM,��
2022/07/18,17:50,0.596,0.841,0.536,1.003,0.715,0.344,0.590,0.555,��,0.9,��
2022/07/18,18:00,0.593,0.841,0.537,1.003,0.713,0.344,0.589,0.556,�쐼,1.1,��
2022/07/18,18:10,0.593,0.842,0.539,1.002,0.714,0.343,0.590,0.556,��,0.9,��
2022/07/18,18:20,0.596,0.842,0.537,1.001,0.714,0.344,0.586,0.555,�쐼,0.9,��
2022/07/18,18:30,0.595,0.844,0.537,1.005,0.712,0.345,0.587,0.555,��,0.9,��
2022/07/18,18:40,0.595,0.842,0.537,1.003,0.713,0.345,0.589,0.555,-,CALM,��
2022/07/18,18:50,0.594,0.842,0.537,1.002,0.714,0.345,0.588,0.555,��,1.4,��
2022/07/18,19:00,0.594,0.842,0.537,1.003,0.713,0.344,0.587,0.557,��쓌,1.5,��
2022/07/18,19:10,0.594,0.842,0.536,1.004,0.714,0.345,0.588,0.557,��쓌,1.9,��
2022/07/18,19:20,0.593,0.840,0.538,1.003,0.713,0.344,0.588,0.556,��,2.0,��
2022/07/18,19:30,0.593,0.841,0.537,1.004,0.713,0.345,0.588,0.556,��쐼,1.4,��
2022/07/18,19:40,0.594,0.842,0.537,1.003,0.713,0.344,0.590,0.556,��,0.9,��
2022/07/18,19:50,0.594,0.843,0.537,1.004,0.714,0.344,0.589,0.556,��,1.4,��
2022/07/18,20:00,0.594,0.841,0.536,1.003,0.716,0.342,0.589,0.555,��,1.4,��
2022/07/18,20:10,0.596,0.839,0.537,1.004,0.714,0.344,0.589,0.556,��쐼,1.4,��
2022/07/18,20:20,0.595,0.841,0.536,1.002,0.715,0.345,0.591,0.557,��,0.6,��
2022/07/18,20:30,0.595,0.842,0.537,1.004,0.714,0.344,0.590,0.555,��,0.9,��
2022/07/18,20:40,0.592,0.842,0.537,1.004,0.715,0.344,0.590,0.557,-,CALM,��
2022/07/18,20:50,0.593,0.843,0.537,1.004,0.714,0.344,0.590,0.556,���k��,1.7,��
2022/07/18,21:00,0.594,0.842,0.538,1.005,0.714,0.344,0.589,0.556,���k��,1.2,��
2022/07/18,21:10,0.594,0.844,0.537,1.004,0.714,0.344,0.589,0.558,�k��,0.6,��
2022/07/18,21:20,0.595,0.843,0.537,1.005,0.715,0.346,0.588,0.559,�k��,1.4,��
2022/07/18,21:30,0.596,0.843,0.538,1.002,0.713,0.345,0.588,0.557,-,CALM,��
2022/07/18,21:40,0.596,0.844,0.538,1.003,0.715,0.344,0.590,0.556,�k�k��,0.6,��
2022/07/18,21:50,0.595,0.843,0.539,1.004,0.714,0.345,0.589,0.558,-,CALM,��
2022/07/18,22:00,0.593,0.845,0.537,1.005,0.714,0.345,0.589,0.557,��쐼,0.9,��
2022/07/18,22:10,0.596,0.843,0.539,1.004,0.712,0.345,0.591,0.558,��쐼,1.2,��
2022/07/18,22:20,0.595,0.842,0.539,1.004,0.715,0.344,0.588,0.557,-,CALM,��
2022/07/18,22:30,0.595,0.844,0.538,1.005,0.713,0.344,0.591,0.557,-,CALM,��
2022/07/18,22:40,0.596,0.846,0.539,1.003,0.714,0.345,0.588,0.556,-,CALM,��
2022/07/18,22:50,0.595,0.842,0.539,1.006,0.716,0.346,0.591,0.556,�k�k��,0.9,��
2022/07/18,23:00,0.596,0.846,0.540,1.004,0.715,0.345,0.589,0.557,�k�k��,1.4,��
2022/07/18,23:10,0.596,0.845,0.539,1.007,0.714,0.345,0.590,0.558,�k��,4.5,��
2022/07/18,23:20,0.596,0.842,0.538,1.004,0.714,0.345,0.589,0.557,�k�k��,3.8,��
2022/07/18,23:30,0.596,0.844,0.541,1.004,0.715,0.345,0.591,0.557,�k,5.3,��
2022/07/18,23:40,0.594,0.844,0.538,1.005,0.716,0.345,0.591,0.558,�k,4.9,��
2022/07/18,23:50,0.594,0.842,0.539,1.006,0.714,0.344,0.590,0.556,�k�k��,4.2,��
